Wabush Lake, Canada

1:09 AM ADT on September 22, 2017 (GMT -0300)
Wabush Lake

Weather History for CYWK - January, 2013

Change the Weather History Date:

Sunday, January 20, 2013

  Actual Average Record
Temperature  
Mean Temperature -20 °F -  
Max Temperature -2 °F 5 °F 26 °F (1999)
Min Temperature -38 °F -17 °F -38 °F (2013)
Degree Days  
Heating Degree Days 85    
Moisture  
Dew Point -26 °F    
Average Humidity 70    
Maximum Humidity 85    
Minimum Humidity 51    
Precipitation  
Precipitation 0.16 in 0.07 in - ()
Sea Level Pressure  
Sea Level Pressure 29.81 in    
Wind  
Wind Speed 6 mph ()    
Max Wind Speed 13 mph    
Max Gust Speed -    
Visibility 8.7 miles    
Events Snow    
Averages and records for this station are not official NWS values.
T = Trace of Precipitation, MM = Missing Value Source: Averaged Metar Reports

Daily Weather History Graph

Daily Weather History Graph

Search for Another Location

Airport or City:

Trip Planner

Search our weather history database for the weather conditions in past years. The results will help you decide how hot, cold, wet, or windy it might be!

Date:

Astronomy

Jan. 20, 2013 Rise Set
Actual Time 8:27 AM AST 4:50 PM AST
Civil Twilight 7:47 AM AST 5:29 PM AST
Nautical Twilight 7:05 AM AST 6:12 PM AST
Astronomical Twilight 6:24 AM AST 6:53 PM AST
Moon 11:52 AM AST (1/20) 2:50 AM AST (1/20)
Length of Visible Light 9h 42m
Length of Day
8h 23m
Waxing Gibbous, 66% of the Moon is Illuminated
Jan 20
Waxing Gibbous
Jan 27
Full
Feb 3
Last Quarter
Feb 10
New
Feb 17
First Quarter

Hourly Weather History & Observations

Time (AST) Temp. Windchill Dew Point Humidity Pressure Visibility Wind Dir Wind Speed Gust Speed Precip Events Conditions
12:00 AM -23.8 °F -43.2 °F -32.8 °F 63% 30.14 in 15.0 mi WSW 8.1 mph - N/A   Clear
1:00 AM -25.6 °F -41.9 °F -32.8 °F 69% 30.14 in 15.0 mi South 5.8 mph - N/A   Clear
2:00 AM -27 °F - -34 °F 52% 30.13 in 15 mi WSW 6.9 mph - -  
2:00 AM -27.4 °F -45.9 °F -34.6 °F 69% 30.13 in 15.0 mi WSW 6.9 mph - N/A   Clear
3:00 AM -25.6 °F -46.8 °F -32.8 °F 69% 30.15 in 15.0 mi SW 9.2 mph - N/A   Partly Cloudy
4:00 AM -32.8 °F -48.2 °F -40.0 °F 68% 30.13 in 15.0 mi SSW 4.6 mph - N/A   Clear
5:00 AM -34.6 °F -54.6 °F -40.0 °F 75% 30.15 in 15.0 mi South 6.9 mph - N/A   Clear
6:00 AM -36.4 °F -54.8 °F -43.6 °F 67% 30.14 in 15.0 mi South 5.8 mph - N/A   Clear
7:00 AM -38.2 °F - -45.4 °F 67% 30.10 in 15.0 mi East 2.3 mph - N/A   Partly Cloudy
8:00 AM -38 °F - -45 °F 51% 30.06 in 15 mi South 2.3 mph - -   Partly Cloudy
8:00 AM -38.2 °F - -45.4 °F 67% 30.06 in 15.0 mi South 2.3 mph - N/A   Scattered Clouds
9:00 AM -32.8 °F - -40.0 °F 68% 30.05 in 15.0 mi Calm Calm - N/A   Mostly Cloudy
10:00 AM -29.2 °F - -36.4 °F 68% 30.03 in 15.0 mi Calm Calm - N/A   Mostly Cloudy
11:00 AM -22.0 °F -41.0 °F -29.2 °F 69% 29.92 in 15.0 mi ENE 8.1 mph - N/A   Overcast
12:00 PM -16.6 °F -35.7 °F -23.8 °F 70% 29.85 in 15.0 mi ENE 9.2 mph - N/A   Overcast
12:53 PM - - - N/A% - 12.0 mi East 12.7 mph - N/A   Unknown
1:00 PM -14.8 °F -35.6 °F -22.0 °F 70% 29.79 in 6.0 mi East 11.5 mph - N/A Snow Light Snow
1:09 PM - - - N/A% - 2.5 mi East 11.5 mph - N/A   Unknown
2:00 PM -13 °F - -19 °F 60% 29.67 in 1 mi East 12.7 mph - - Snow Light Snow
2:00 PM -13.0 °F -34.3 °F -18.4 °F 77% 29.67 in 1.2 mi East 12.7 mph - N/A Snow Light Snow
3:00 PM -11.2 °F -29.0 °F -16.6 °F 77% 29.60 in 0.8 mi ENE 9.2 mph - N/A Snow Light Snow
4:00 PM -7.6 °F -25.7 °F -13.0 °F 77% 29.55 in 0.8 mi East 10.4 mph - N/A Snow Light Snow
5:00 PM -7.6 °F -23.4 °F -13.0 °F 77% 29.53 in 0.8 mi East 8.1 mph - N/A Snow Light Snow
6:00 PM -5.8 °F -23.4 °F -11.2 °F 77% 29.49 in 0.8 mi East 10.4 mph - N/A Snow Light Snow
7:00 PM -5.8 °F -22.4 °F -11.2 °F 77% 29.45 in 1.0 mi ENE 9.2 mph - N/A Snow Light Snow
8:00 PM -4 °F - -9 °F 67% 29.42 in 1 mi ENE 9.2 mph - - Snow Light Snow
8:00 PM -4.0 °F -20.2 °F -9.4 °F 78% 29.42 in 1.0 mi ENE 9.2 mph - N/A Snow Light Snow
9:00 PM -4.0 °F -20.2 °F -7.6 °F 85% 29.37 in 1.0 mi ENE 9.2 mph - N/A Snow Light Snow
10:00 PM -2.2 °F -15.6 °F -7.6 °F 78% 29.33 in 2.0 mi NE 6.9 mph - N/A Snow Light Snow
11:00 PM -7.6 °F -22.1 °F -13.0 °F 77% 29.28 in 4.0 mi North 6.9 mph - N/A Snow Light Snow